This is the latest recevied weather packets stored in our database for station/object KN6WGU. If no packets are shown the sender has not sent any weather packets the latest 10 day(s).
| Time | Temp. | Humidity | Pressure | Rain* | Wind** | Luminosity | Snow |
|---|---|---|---|---|---|---|---|
| 1777288600 | 6.11° C | 99% | 1013.3 hPa | 0 mm | - | 34 W/m² | - |
| 1777288297 | 5.56° C | 99% | 1013.4 hPa | 0 mm | - | 30 W/m² | - |
| 1777287994 | 5.56° C | 99% | 1013.5 hPa | 0 mm | - | 26 W/m² | - |
| 1777287691 | 5° C | 99% | 1013.8 hPa | 0 mm | - | 22 W/m² | - |
| 1777287386 | 5° C | 99% | 1013.5 hPa | 0 mm | - | 17 W/m² | - |
| 1777287082 | 5° C | 99% | 1013.4 hPa | 0 mm | - | 13 W/m² | - |
| 1777286780 | 5° C | 99% | 1013.5 hPa | 0 mm | - | 10 W/m² | - |
| 1777286478 | 4.44° C | 99% | 1013.5 hPa | 0 mm | - | 7 W/m² | - |
| 1777286174 | 4.44° C | 99% | 1013.7 hPa | 0 mm | - | 4 W/m² | - |
| 1777285872 | 4.44° C | 99% | 1013.4 hPa | 0 mm | - | 2 W/m² | - |
| 1777285569 | 4.44° C | 99% | 1013.3 hPa | 0 mm | - | 1 W/m² | - |
| 1777285267 | 5° C | 99% | 1013.6 hPa | 0 mm | - | 1 W/m² | - |
| 1777284964 | 4.44° C | 99% | 1013.5 hPa | 0 mm | - | 0 W/m² | - |
| 1777284660 | 5° C | 99% | 1013.4 hPa | 0 mm | - | 0 W/m² | - |
| 1777284357 | 5° C | 99% | 1013.6 hPa | 0 mm | - | 0 W/m² | - |
| 1777284054 | 5° C | 99% | 1013.5 hPa | 0 mm | - | 0 W/m² | - |
| 1777283751 | 5° C | 99% | 1013.4 hPa | 0 mm | - | 0 W/m² | - |
| 1777283449 | 5° C | 99% | 1013.5 hPa | 0 mm | - | 0 W/m² | - |
| 1777283147 | 5° C | 99% | 1013.5 hPa | 0 mm | - | 0 W/m² | - |
| 1777282844 | 5° C | 99% | 1013.6 hPa | 0 mm | - | 0 W/m² | - |
| 1777282539 | 5° C | 99% | 1013.3 hPa | 0 mm | - | 0 W/m² | - |
| 1777282236 | 5° C | 99% | 1013.5 hPa | 0 mm | - | 0 W/m² | - |
| 1777281933 | 5° C | 99% | 1013.4 hPa | 0 mm | - | 0 W/m² | - |
| 1777281631 | 5° C | 99% | 1013.4 hPa | 0 mm | - | 0 W/m² | - |
| 1777281328 | 5.56° C | 99% | 1013.2 hPa | 0 mm | - | 0 W/m² | - |
* Rain latest hour (hover to see other rain measurements)
** Current wind speed in m/s (hover to see current wind gust speed)